Weather History for Amarillo, TX

Change the Weather History Date:

Friday, June 14, 2013

  Actual Average Record
Temperature  
Mean Temperature 78 °F 74 °F  
Max Temperature 90 °F 88 °F 107 °F (1953)
Min Temperature 66 °F 61 °F 44 °F (1947)
Degree Days  
Heating Degree Days 0 0  
Month to date heating degree days 0 5  
Since 1 June heating degree days 0 5  
Since 1 July heating degree days 3736 4176  
Cooling Degree Days 13 9  
Month to date cooling degree days 145 108  
Year to date cooling degree days 393 233  
Since 1 June cooling degree days 145 108  
Growing Degree Days 28 (Base 50)    
Moisture  
Dew Point 59 °F    
Average Humidity 53    
Maximum Humidity 81    
Minimum Humidity 24    
Precipitation  
Precipitation 0.42 in 0.11 in 1.62 in (1962)
Month to date precipitation 1.62 1.62  
Year to date precipitation 7.91 7.98  
Snow  
Snow 0.00 in 0.00 in T in (2008)
Month to date snowfall 0.0 0.0  
Since 1 June snowfall 0.0 0.0  
Since 1 July snowfall 29.7 17.8  
Snow Depth 0.00 in    
Sea Level Pressure  
Sea Level Pressure 29.91 in    
Wind  
Wind Speed 16 mph (South)    
Max Wind Speed 30 mph    
Max Gust Speed 38 mph    
Visibility 9 miles    
Events Rain , Thunderstorm    
T = Trace of Precipitation, MM = Missing Value Source: NWS Daily Summary

Daily Weather History Graph

Daily Weather History Graph

Search for Another Location

Airport:

Trip Planner

Search our weather history database for the weather conditions in past years. The results will help you decide how hot, cold, wet, or windy it might be!

Date:

Astronomy

Jun. 14, 2013 Rise Set
Actual Time 6:31 AM CDT 9:02 PM CDT
Civil Twilight 6:01 AM CDT 9:32 PM CDT
Nautical Twilight 5:25 AM CDT 10:09 PM CDT
Astronomical Twilight 4:44 AM CDT 10:50 PM CDT
Moon 11:58 AM CDT (6/14) 12:19 AM CDT (6/14)
Length of Visible Light 15h 30m
Length of Day
14h 31m
Waxing Crescent, 30% of the Moon is Illuminated
Jun 14
Waxing Crescent
Jun 16
First Quarter
Jun 23
Full
Jun 29
Last Quarter
Jul 8
New

Hourly Weather History & Observations

Time (CDT) Temp. Heat Index Dew Point Humidity Pressure Visibility Wind Dir Wind Speed Gust Speed Precip Events Conditions
12:53 AM 75.9 °F - 57.0 °F 52% 29.90 in 10.0 mi SSE 11.5 mph - N/A   Clear
1:53 AM 77.0 °F - 55.9 °F 48% 29.89 in 10.0 mi South 19.6 mph 25.3 mph N/A   Clear
2:53 AM 71.1 °F - 57.9 °F 63% 29.89 in 10.0 mi SSW 11.5 mph - N/A   Clear
3:53 AM 70.0 °F - 60.1 °F 71% 29.88 in 10.0 mi SSW 12.7 mph - N/A   Clear
4:53 AM 68.0 °F - 60.1 °F 76% 29.88 in 10.0 mi SSW 11.5 mph - N/A   Clear
5:53 AM 66.9 °F - 60.1 °F 79% 29.89 in 10.0 mi SSW 8.1 mph - N/A   Clear
6:53 AM 66.0 °F - 61.0 °F 84% 29.90 in 10.0 mi SSW 6.9 mph - N/A   Clear
7:53 AM 69.1 °F - 62.1 °F 78% 29.90 in 10.0 mi SSW 5.8 mph - N/A   Clear
8:53 AM 73.9 °F - 62.1 °F 66% 29.91 in 10.0 mi South 10.4 mph - N/A   Clear
9:53 AM 80.1 °F 81.1 °F 61.0 °F 52% 29.91 in 10.0 mi South 15.0 mph - N/A   Clear
10:53 AM 82.0 °F 82.0 °F 57.9 °F 44% 29.90 in 10.0 mi South 21.9 mph 26.5 mph N/A   Clear
11:53 AM 81.0 °F 81.3 °F 59.0 °F 47% 29.91 in 10.0 mi South 18.4 mph 27.6 mph N/A   Clear
12:53 PM 86.0 °F 84.7 °F 55.9 °F 36% 29.89 in 10.0 mi South 17.3 mph 28.8 mph N/A   Clear
1:53 PM 89.1 °F - 48.0 °F 24% 29.86 in 10.0 mi SSE 24.2 mph 34.5 mph N/A   Clear
2:53 PM 87.1 °F 85.3 °F 55.0 °F 33% 29.86 in 10.0 mi South 16.1 mph 31.1 mph N/A   Clear
3:53 PM 82.9 °F 82.0 °F 55.0 °F 38% 29.86 in 10.0 mi SSE 19.6 mph 28.8 mph N/A   Partly Cloudy
4:53 PM 84.9 °F 83.2 °F 53.1 °F 33% 29.84 in 10.0 mi SE 18.4 mph 28.8 mph N/A   Mostly Cloudy
5:53 PM 82.9 °F - 50.0 °F 32% 29.84 in 10.0 mi SSE 24.2 mph 31.1 mph N/A   Scattered Clouds
6:53 PM 79.0 °F - 54.0 °F 42% 29.85 in 10.0 mi SSE 26.5 mph 34.5 mph N/A   Clear
7:53 PM 77.0 °F - 57.9 °F 52% 29.87 in 10.0 mi South 21.9 mph 26.5 mph N/A   Scattered Clouds
8:53 PM 71.1 °F - 61.0 °F 70% 29.89 in 10.0 mi SSE 21.9 mph 28.8 mph 0.00 in Rain Light Rain
9:20 PM 66.2 °F - 64.4 °F 94% 30.05 in 4.0 mi SSE 18.4 mph - 0.02 in Rain , Thunderstorm Thunderstorms and Rain
9:42 PM 66.2 °F - 62.6 °F 88% 30.06 in 2.5 mi SW 17.3 mph 24.2 mph 0.10 in Rain , Thunderstorm Thunderstorms and Rain
9:53 PM 66.0 °F - 64.0 °F 93% 29.92 in 2.0 mi SW 9.2 mph - 0.22 in Rain , Thunderstorm Thunderstorms and Rain
10:04 PM 66.2 °F - 62.6 °F 88% 30.07 in 7.0 mi SW 11.5 mph - 0.03 in Rain , Thunderstorm Thunderstorms and Rain
10:32 PM 66.2 °F - 62.6 °F 88% 30.08 in 7.0 mi South 12.7 mph - 0.11 in Rain , Thunderstorm Thunderstorms and Rain
10:53 PM 66.9 °F - 64.0 °F 90% 29.93 in 8.0 mi SSE 12.7 mph - 0.15 in Rain Light Rain
11:53 PM 66.0 °F - 64.0 °F 93% 29.88 in 10.0 mi SSE 18.4 mph - 0.04 in   Scattered Clouds